Home > Weather > Fosnavåg > Past weeks

Flag for Norway Past Weather in Fosnavåg, Norway — Yesterday and Last 2 Weeks

Now
54 °F

Cool.


Feels Like: 51 °F
Forecast: 51 / 59 °F
Wind: 10 mph from Southwest

Location: Svinoy Fyr

Current Time: Jun 28, 2016 at 3:25:27 PM

Latest Report: Jun 28, 2016 at 2:00 PM


Visibility: N/A

Pressure: 29.82 "Hg

Humidity: 76%

Dew Point: 47 °F

Location of FosnavågLocation

Past Weather in Fosnavåg — Graph

°F

Fosnavåg Temperature Yesterday

Maximum temperature yesterday: 55 °F (at 3:00 AM)
Minimum temperature yesterday: 51 °F (at 7:00 AM)
Average temperature yesterday: 52 °F

High & Low Weather Summary for the Past Weeks

 TemperatureHumidityPressure
High61 °F (Jun 22, 3:00 PM)97% (Jun 24, 6:00 PM)30.10 "Hg (Jun 24, 6:00 PM)
Low46 °F (Jun 19, 2:00 AM)59% (Jun 22, 3:00 PM)29.54 "Hg (Jun 20, 9:00 PM)
Average50 °F86%29.84 "Hg
* Reported Jun 13 2:00 PM — Jun 28 2:00 PM, Fosnavåg, Weather by CustomWeather, © 2016

Note: Actual official high and low records may vary slightly from our data, if they occured in-between our weather recording intervals... More about our weather records

Advertising

Fosnavåg Weather History for the Previous 24 Hours

Scroll right to see more
 ConditionsComfort  
Time TempWeatherWind HumidityBarometerVisibility
2:00 PM
Tue, Jun 28
54 °FCool.10 mph76%29.82 "HgN/A
1:00 PM53 °FCool.13 mph77%29.81 "HgN/A
12:00 PM53 °FCool.3 mph83%29.81 "HgN/A
11:00 AM51 °FCool.8 mph89%29.80 "HgN/A
10:00 AM53 °FCool.12 mph78%29.78 "HgN/A
9:00 AM51 °FCool.8 mph87%29.78 "HgN/A
8:00 AM52 °FCool.7 mph78%29.77 "HgN/A
7:00 AM51 °FCool.8 mph81%29.77 "HgN/A
6:00 AM51 °FCool.8 mph81%29.77 "HgN/A
5:00 AM52 °FCool.9 mph81%29.76 "HgN/A
3:00 AM51 °FCool.14 mph86%29.74 "HgN/A
2:00 AM51 °FCool.13 mph89%29.73 "HgN/A
1:00 AM51 °FCool.15 mph89%29.72 "HgN/A
12:00 AM51 °FCool.13 mph93%29.70 "HgN/A
11:00 PM
Mon, Jun 27
51 °FCool.12 mph91%29.69 "HgN/A
10:00 PM52 °FCool.17 mph90%29.65 "HgN/A
9:00 PM51 °FCool.15 mph92%29.63 "HgN/A
8:00 PM52 °FCool.17 mph90%29.60 "HgN/A
7:00 PM52 °FCool.12 mph91%29.60 "HgN/A
6:00 PM53 °FCool.7 mph87%29.61 "HgN/A
5:00 PM52 °FCool.8 mph90%29.60 "HgN/A
4:00 PM52 °FCool.12 mph87%29.60 "HgN/A
3:00 PM54 °FCool.10 mph81%29.60 "HgN/A
Weather by CustomWeather, © 2016

See weather overviewHow to use our weather pages